Regional Weather Roundup
Issued by NWS

Home | Current Version | Previous Version | Text Only | Print | Product List | Glossary Off
Versions: 1 2 3 4 5 6 7 8 9 10 11 12 13 14 15 16 17 18 19 20 21 22 23 24 25 26 27 28 29 30 31 32 33 34 35 36 37 38 39 40 41 42 43 44 45 46 47 48 49 50

000
ASUS43 KOAX 291910
RWRNE
OMARWRNE ALL

WEATHER ROUNDUP FOR NEBRASKA
NATIONAL WEATHER SERVICE OMAHA NE
200 PM CDT MON JUN 29 2015

NOTES: SATELLITE DATA IS BEING USED TO AUGMENT CLOUD COVER ABOVE
       12000 FEET.
       "FAIR" INDICATES FEW OR NO CLOUDS BELOW 12,000 FEET WITH NO
       SIGNIFICANT WEATHER AND/OR OBSTRUCTIONS TO VISIBILITY.

  * THESE STATIONS DO NOT REPORT WEATHER SUCH AS RAIN...SNOW OR FOG.

NEZ001>004-019>022-054>056-292000-
NEBRASKA PANHANDLE

CITY           SKY/WX    TMP DP  RH WIND       PRES   REMARKS
SCOTTSBLUFF    SUNNY     87  53  31 VRB3      30.14F
ALLIANCE       SUNNY     84  57  39 VRB6      30.14S
CHADRON        SUNNY     88  59  37 NE6       30.10S
KIMBALL          N/A    N/A N/A N/A MISG        N/A
SIDNEY         PTSUNNY   81  61  50 NW5       30.19F
$$

NEZ057>060-069>072-079>082-292000-
SOUTHWEST NEBRASKA

CITY           SKY/WX    TMP DP  RH WIND       PRES   REMARKS
NORTH PLATTE   SUNNY     90  57  32 NW5       30.05F
IMPERIAL       PTSUNNY   84  57  39 N6        30.11F
LEXINGTON      SUNNY     91  56  30 NW9G18    30.04F
MCCOOK         MOSUNNY   87  56  34 CALM      30.06F
OGALLALA       MOSUNNY   84  58  41 S3        30.11F
$$

NEZ005>010-023>029-035>040-094-292000-
NORTH CENTRAL NEBRASKA

CITY           SKY/WX    TMP DP  RH WIND       PRES   REMARKS
VALENTINE      SUNNY     87  59  38 N9        30.04F
AINSWORTH      SUNNY     84  60  43 N9        30.05S
BROKEN BOW     SUNNY     87  57  35 N8        30.03F
O`NEILL        SUNNY     84  61  45 NW9       30.01S
ORD            SUNNY     87  57  35 NW12      30.00F
THEDFORD       SUNNY     87  58  36 N7        30.07F
$$

NEZ041-046>049-061>064-073>077-083>087-292000-
SOUTH CENTRAL NEBRASKA

CITY           SKY/WX    TMP DP  RH WIND       PRES   REMARKS
GRAND ISLAND   SUNNY     86  57  37 NW12      30.02F
AURORA         SUNNY     83  57  39 N12       30.01S
HASTINGS       SUNNY     84  59  42 N12       30.02F
HEBRON         SUNNY     83  54  36 N8        30.00S
HOLDREGE       SUNNY     86  54  33 NW7       30.04S
KEARNEY *      SUNNY     88  55  33 N12       30.02F
YORK           SUNNY     84  59  42 N13       30.00F
$$

NEZ011>018-030>034-042>045-292000-
NORTHEAST NEBRASKA

CITY           SKY/WX    TMP DP  RH WIND       PRES   REMARKS
NORFOLK        SUNNY     84  60  44 N13       29.97F
ALBION         SUNNY     84  53  34 N9        30.00F
BLAIR          PTSUNNY   83  60  45 N9        29.95F
COLUMBUS *     SUNNY    N/A N/A N/A MISG        N/A
FREMONT        SUNNY     86  55  34 NW10      29.96F
TEKAMAH        SUNNY     87  62  43 NW10      29.94S
WAYNE          MOSUNNY   82  64  53 NW9       29.97S
$$

NEZ050>053-065>068-078-088>093-292000-
SOUTHEAST NEBRASKA

CITY           SKY/WX    TMP DP  RH WIND       PRES   REMARKS
LINCOLN        MOSUNNY   87  58  37 NW7       29.97F
OMAHA EPPLEY   CLOUDY    85  62  46 N12       29.94F
BEATRICE       SUNNY     83  61  46 NW9G16    29.97F
FALLS CITY     MOSUNNY   85  63  47 NW13G18   29.94S
NEBRASKA CITY  PTSUNNY   84  50  31 NW10G17   29.95F
PLATTSMOUTH    MOSUNNY   83  57  40 N7        29.95F
$$

NEZ044-045-051>053-067-292000-
OMAHA AREA

CITY           SKY/WX    TMP DP  RH WIND       PRES   REMARKS
OMAHA EPPLEY   CLOUDY    85  62  46 N12       29.94F
BLAIR          PTSUNNY   83  60  45 N9        29.95F
FREMONT        SUNNY     86  55  34 NW10      29.96F
MILLARD        MOSUNNY   84  62  48 NW7       29.94F
OFFUTT AFB     MOSUNNY   83  64  52 NW9       29.93F
PLATTSMOUTH    MOSUNNY   83  57  40 N7        29.95F
WAHOO          FAIR      85  57  37 NW13      29.96S
$$



USA.gov is the U.S. government's official web portal to all federal, state and local government web resources and services.